Back to catalog

TITAN 3C TRANSTAGE DEB

LostMEO
NORAD 38696·DEBRIS·🇺🇸 United States

Launched Sep 26, 1968 from Cape Canaveral Space Force Station

Loading…

Next Passes (next 24 hours)

TLE

StaleSource: Space-Track

Epoch: Jul 23, 2024, 09:23 UTC

1 38696U 68081W   24205.39109024  .00000079  00000-0  00000-0 0  9992
2 38696   1.7308 347.5336 0207893 302.1970   0.0300  0.99495191 41774

Track TITAN 3C TRANSTAGE DEB in real time with AllMySat

Download on the App Store